Tracking 19176 objects as of 27-May-2018
HD Live streaming from Space Station
objects crossing your sky now

COSMOS 1925

Track COSMOS 1925 now!
10-day predictions
COSMOS 1925 is classified as:


NORAD ID: 18938
Int'l Code: 1988-016B
Perigee: 1,466.3 km
Apogee: 1,503.7 km
Inclination: 74.0 °
Period: 115.5 minutes
Semi major axis: 7856 km
RCS: 0.7088 m2 (medium)
Launch date: March 11, 1988
Source: Commonwealth of Independent States (former USSR) (CIS)
Launch site: PLESETSK MISSILE AND SPACE COMPLEX (PKMTR)
aabbcc
Your satellite tracking list
Your tracking list is empty




NASA's NSSDC Master Catalog

Two Line Element Set (TLE):
1 18938U 88016B   18147.06262312 +.00000006 +00000-0 +15219-3 0  9992
2 18938 074.0054 345.9639 0023794 035.4420 082.7164 12.46804569374943
Source of the keplerian elements: AFSPC